Regional Weather Roundup
Issued by NWS

Home | Current Version | Previous Version | Graphics & Text | Print | Product List | Glossary On
Versions: 1 2 3 4 5 6 7 8 9 10 11 12 13 14 15 16 17 18 19 20 21 22 23 24 25 26 27 28 29 30 31 32 33 34 35 36 37 38 39 40 41 42 43 44 45 46 47 48
000
ASUS43 KDMX 222307
RWRIA

WEATHER ROUNDUP FOR IOWA
NATIONAL WEATHER SERVICE DES MOINES IA
600 PM CDT MON SEP 22 2014

NOTE: "FAIR" INDICATES FEW OR NO CLOUDS BELOW 12,000 FEET WITH NO
SIGNIFICANT WEATHER AND/OR OBSTRUCTIONS TO VISIBILITY.

* - THESE STATIONS ARE NOT NWS STATIONS...THUS NOT UNDER NWS
QUALITY CONTROL.  THEY ALSO DO NOT REPORT WEATHER SUCH
AS PRECIPITATION OR FOG.

IAZ001>003-012>014-020>022-031>034-043>046-230000-
   NORTHWEST IOWA

CITY           SKY/WX    TMP DP  RH WIND       PRES   REMARKS
CARROLL *      SUNNY     72  48  43 VRB6      30.20S
CHEROKEE *     SUNNY     70  50  49 S8        30.19S
DENISON *      SUNNY     70  52  52 S7        30.18F
LE MARS *      SUNNY     70  50  49 S7        30.18F
ORANGE CITY *  SUNNY     72  46  40 SW13      30.18F
SHELDON *      SUNNY     70  50  49 S10       30.17S
SIOUX CITY     MOSUNNY   72  48  42 S9        30.18F
SPENCER        SUNNY     71  48  43 SW12      30.19S
STORM LAKE *   SUNNY     70  52  52 SW8       30.20S
$$

IAZ055>058-069>071-079>083-090>094-230000-
   SOUTHWEST IOWA

CITY           SKY/WX    TMP DP  RH WIND       PRES   REMARKS
ATLANTIC *     SUNNY     72  50  46 SW9       30.20F
AUDUBON *      SUNNY     70  46  43 SW3       30.22S
CLARINDA *     SUNNY     72  50  46 CALM      30.22S
COUNCIL BLFS * SUNNY     72  52  49 SE8       30.19F
CRESTON *      SUNNY     68  52  56 S7        30.22F
HARLAN  *      SUNNY     70  50  49 SW8       30.24F
LAMONI         SUNNY     70  50  49 SE3       30.23F
RED OAK *      SUNNY     73  50  43 S9        30.20F
SHENANDOAH *   SUNNY     73  50  43 S8G17     30.21F
$$

IAZ047>049-059>061-072>074-084-230000-
   CENTRAL IOWA

CITY           SKY/WX    TMP DP  RH WIND       PRES   REMARKS
AMES           MOSUNNY   70  50  49 S8        30.21S
ANKENY *       SUNNY     70  52  52 SW7       30.22S
CHARITON *     SUNNY     70  48  46 S6        30.23S HAZE
DES MOINES     MOSUNNY   72  50  45 SW7       30.21F
GRINNELL*      SUNNY     70  46  43 CALM      30.23S
KNOXVILLE *    SUNNY     70  52  52 S6        30.22R
MARSHALLTOWN   SUNNY     70  49  47 S8        30.21F
PELLA *        SUNNY     73  50  43 CALM      30.24R
PERRY *          N/A     72  45  37 SW6       30.21S
$$

IAZ004>006-015-016-023>025-035-036-230000-
   NORTH CENTRAL IOWA

CITY           SKY/WX    TMP DP  RH WIND       PRES   REMARKS
ALGONA *       SUNNY     72  48  43 SW6       30.19F
CLARION *        N/A     72  45  37 SW5       30.20S
ESTHERVILLE    MOSUNNY   70  47  43 SW8       30.19S
FORT DODGE *   MOSUNNY   72  48  43 SW6       30.20F
MASON CITY     SUNNY     69  48  47 SW3       30.21F
FOREST CITY *  SUNNY     68  48  49 SW5       30.19F
IOWA FALLS *     N/A     72  46  40 S3        30.21F
$$

IAZ007>011-017>019-026>030-037>042-050>054-066-230000-
   NORTHEAST IOWA

CITY           SKY/WX    TMP DP  RH WIND       PRES   REMARKS
CEDAR RAPIDS   SUNNY     68  48  48 S5        30.22F
CHARLES CITY * SUNNY     70  46  43 W6        30.21S
CLINTON *      SUNNY     70  45  40 CALM      30.26S
DECORAH *      SUNNY     68  48  49 CALM      30.19F
DUBUQUE        SUNNY     67  46  47 W8        30.23S
MONTICELLO *   SUNNY     68  48  49 SW7       30.22S
OELWEIN *      SUNNY     70  48  46 SW7       30.22S
WATERLOO       SUNNY     70  49  47 S7        30.19F
$$

IAZ064-065-067-068-078-230000-
   EAST CENTRAL IOWA

CITY           SKY/WX    TMP DP  RH WIND       PRES   REMARKS
DAVENPORT      SUNNY     67  47  48 S6        30.24S
IOWA CITY      SUNNY     69  50  50 S3        30.24S
MT. PLEASANT * SUNNY     72  41  33 CALM      30.23F
MUSCATINE *    SUNNY     72  45  37 CALM      30.23F
QUAD CITIES    SUNNY     68  46  45 S5        30.23F
$$

IAZ062-063-075>077-085>089-095>099-230000-
   SOUTHEAST IOWA

CITY           SKY/WX    TMP DP  RH WIND       PRES   REMARKS
BURLINGTON     LGT RAIN  69  47  45 NE5       30.24S
FAIRFIELD *    SUNNY     70  46  43 S5        30.24S
FORT MADISON * SUNNY     70  46  43 CALM      30.25S
KEOKUK *       SUNNY     70  48  46 CALM      30.24R HAZE
OSKALOOSA *      N/A     70  50  49 S5        30.23S
CENTERVILLE *    N/A     68  50  52 S3        30.25S HAZE
OTTUMWA        SUNNY     69  46  43 S3        30.23S
WASHINGTON *   SUNNY     70  46  43 S6        30.23S
$$

ABBREVIATIONS USED IN REMARKS
   TC - TEMPERATURES IN CELSIUS
  WCI - WIND CHILL INDEX
   HX - HEAT INDEX
  VSB - VISIBILITY
$$



USA.gov is the U.S. government's official web portal to all federal, state and local government web resources and services.